Station BUZM3 - Buzzards Bay, MA Image indicating link to RSS feed of recent meteorological observations for station BUZM3


Conditions at BUZM3 as of
(1:00 am EDT)
0500 GMT on 06/24/2024:
     

Click on the graph icon in the table below to see a time series plot of the last five days of that observation.

5-day plot - Wind Direction Wind Direction (WDIR): SW ( 220 deg true )
5-day plot - Wind Speed Wind Speed (WSPD): 28 kts
5-day plot - Wind Gust Wind Gust (GST): 30 kts
5-day plot - Atmospheric Pressure Atmospheric Pressure (PRES):29.59 in
5-day plot - Pressure Tendency Pressure Tendency (PTDY):-0.03 in ( Falling )
5-day plot - Air Temperature Air Temperature (ATMP): 69.6 °F
5-day plot - Wind Speed at 10 Meters Wind Speed at 10 meters (WSPD10M): 25 kts
5-day plot - Wind Speed at 20 Meters Wind Speed at 20 meters (WSPD20M): 27 kts
5-day plot -  Wind Speed, Wind Gust and Atmospheric Pressure Combined plot of Wind Speed, Gust, and Air Pressure
Continuous Winds
TIME
(EDT)
5-day plot - Wind Direction WDIR 5-day plot - Wind Speed WSPD
1:00 amSW ( 222 deg ) 29 kts
12:50 amSW ( 217 deg ) 28 kts
12:40 amSW ( 220 deg ) 27 kts
12:30 amSW ( 222 deg ) 25 kts
12:20 amSW ( 224 deg ) 24 kts
12:10 amSW ( 226 deg ) 23 kts
 
Peak gust during the measurement hour
TIME
(EDT)
5-day plot - Gust Direction GDR 5-day plot - Gust Speed GST
12:49 amSW ( 220 deg ) 34 kts
Previous observations
TIME
(EDT)
5-day plot - Wind Direction
WDIR
 
5-day plot - Wind Speed
WSPD
kts
5-day plot - Wind Gust
GST
kts
5-day plot - Wave Height
WVHT
ft
5-day plot - Dominant Wave Period
DPD
sec
5-day plot - Average Wave Period
APD
sec
5-day plot - Mean Wave Direction
MWD
 
5-day plot - Atmospheric Pressure
PRES
in
5-day plot - Pressure Tendency
PTDY
in
5-day plot - Air Temperature
ATMP
°F
5-day plot - Water Temperature
WTMP
°F
5-day plot - Dew Point
DEWP
°F
5-day plot - Salinity
SAL
psu
5-day plot - Visibility
VIS
nmi
5-day plot - Tide (above MLLW)
TIDE
ft
2024-06-24 12:00 am SW 23 25----29.59-0.01 70.5-----
2024-06-23 11:00 pm SW 21 23----29.62+0.00 69.4-----
2024-06-23 10:00 pm SW 24 26----29.62+0.00 70.9-----
2024-06-23 09:00 pmSSW 27 30----29.61-0.03 71.2-----
2024-06-23 08:00 pmSSW 26 28----29.62-0.03 71.2-----
2024-06-23 07:00 pmSSW 28 30----29.62-0.06 71.2-----
2024-06-23 06:00 pmSSW 25 27----29.63-0.07 71.2-----
2024-06-23 05:00 pmSSW 25 27----29.65-0.08 71.2-----
2024-06-23 04:00 pmSSW 21 24----29.68-0.07 71.1-----
2024-06-23 03:00 pmSSW 23 25----29.70-0.07 71.2-----
2024-06-23 02:00 pmSSW 22 23----29.73-0.07 70.7-----
2024-06-23 01:00 pmSSW 23 25----29.75-0.06 70.7-----
2024-06-23 12:00 pmSSW 23 25----29.77-0.08 70.5-----
2024-06-23 11:00 amSSW 20 22----29.80-0.06 70.3-----
2024-06-23 10:00 amSSW 22 23----29.82-0.07 70.5-----
2024-06-23 09:00 am S 16 17----29.85-0.06 69.8-----
2024-06-23 08:00 amSSE 15 16----29.86-0.06 68.7-----
2024-06-23 07:00 am SE 15 16----29.89-0.06 67.6-----
2024-06-23 06:00 amESE 10 11----29.91-0.04 65.8-----
2024-06-23 05:00 am E 8 8----29.92-0.04 65.1-----
2024-06-23 04:00 am N 9 11----29.95-0.03 65.5-----
2024-06-23 03:00 amENE 8 8----29.95-0.04 65.3-----
2024-06-23 02:00 am NE 10 11----29.96-0.04 65.8-----
2024-06-23 01:00 am NE 10 10----29.98-0.01 66.2-----